STARLINK-11453 [DTC] (62411 NORAD) Tracking and Keplerian Element Data

This shows tracking and keplerian element data for the satellite.

Feedback or suggestion? Click here.




ElementValue
Catalog62411
NameSTARLINK-11453 [DTC]
Epoch Orbit651
Epoch Day35.09688607
Epoch Year2025
RAAN51.0272
Inclination42.9992
Eccentricity0.000234
Argument of Perigee292.6864
Mean Anonmoly67.3759
Mean Motion15.77850535
Decay Rate-2.465E-05
L11 62411U 24249C 25035.09688607 -.00002465 00000+0 -11300-4 0 9991
L22 62411 42.9992 51.0272 0002340 292.6864 67.3759 15.77850535 6519



Live tracking and technical data element details for STARLINK-11453 [DTC] (NORAD 62411). STARLINK-11453 [DTC] can be tracked NOW for your location showing map with azimuth and elevation plus other details from your city location.







IsCatalogInMostPopularTable: catalog: 62411, numindb: 20
Update: records affected: 1



GetName: 62411 STARLINK-11453 [DTC]

Hit Count: updated at: Mon, 19 May 2025 02:36:03 GMT